Regional Weather Roundup
Issued by NWS Northern Indiana

Home | Current Version | Previous Version | Text Only | Print | Product List | Glossary On
Versions: 1 2 3 4 5 6 7 8 9 10 11 12 13 14 15 16 17 18 19 20 21 22 23 24 25 26 27 28 29 30 31 32 33 34 35 36 37 38 39 40 41 42 43 44 45 46 47 48 49 50
000
ASUS43 KIWX 270110
RWRIWX

KIWX WEATHER ROUNDUP
NATIONAL WEATHER SERVICE NORTHERN INDIANA
800 PM EST FRI DEC 26 2014

NOTE: "FAIR" INDICATES FEW OR NO CLOUDS BELOW 12,000 FEET WITH NO
SIGNIFICANT WEATHER AND/OR OBSTRUCTIONS TO VISIBILITY.

* THESE STATIONS ARE NOT UNDER NWS QUALITY CONTROL. THEY ALSO MAY NOT
  REPORT WEATHER SUCH AS PRECIPITATION OR FOG.

INZ001>027-270200-
NORTHERN INDIANA

CITY           SKY/WX    TMP DP  RH WIND       PRES   REMARKS
GARY*          CLOUDY    50  39  66 S8        30.04S
VALPARAISO     CLOUDY    47  41  80 S8        30.05F
MICHIGAN CITY* CLOUDY    46  37  71 S8        30.05S
LAPORTE*       CLOUDY    48  43  81 S8        30.05F
KNOX*          CLOUDY    47  37  70 S10       30.06S
SOUTH BEND     CLOUDY    49  41  74 S10G21    30.07S
ELKHART*       CLOUDY    46  39  76 S8        30.07S
GOSHEN         MOCLDY    45  39  79 S8        30.07S
MONTICELLO*    MOCLDY    45  40  84 S6        30.07S
LOGANSPORT*    PTCLDY    41  37  87 S7        30.09F
ROCHESTER*     PTCLDY    45  41  87 S6        30.08F
WARSAW*        PTCLDY    43  39  87 S3        30.08F
ANGOLA*        MOCLDY    39  37  93 S3        30.08F
FORT WAYNE     CLOUDY    42  39  89 S8        30.11S
HUNTINGTON*    MOCLDY    42  39  88 S3        30.10S
PERU/GRISSOM   FAIR      42  42 100 S7        30.09S
MARION*        MOCLDY    42  37  84 S8        30.11S

$$
INZ028>050-270200-
CENTRAL INDIANA

CITY           SKY/WX    TMP DP  RH WIND       PRES   REMARKS
LAFAYETTE      CLOUDY    45  40  82 S6        30.08S
KOKOMO*        PTCLDY    39  36  87 S7        30.10S
MUNCIE*        MOCLDY    46  38  73 S10       30.11F
INDIANAPOLIS   MOCLDY    45  39  79 S7        30.11S

$$
MIZ043>046-050>051-056>058-064>065-071>073-077>080-270200-
SOUTHWEST LOWER MICHIGAN

CITY           SKY/WX    TMP DP  RH WIND       PRES   REMARKS
BATTLE CREEK   CLOUDY    43  38  82 S3        30.07R
BENTON HARBOR  CLOUDY    47  41  80 S3        30.05S
COLDWATER*     CLOUDY    45  39  81 S8        30.08R
HILLSDALE*     PTCLDY    41  40  94 S7        30.09R
HOLLAND        CLOUDY    40  36  86 SE3       30.05S
GRAND RAPIDS   CLOUDY    36  33  89 CALM      30.06R
KALAMAZOO      CLOUDY    44  38  79 S6        30.07R
STURGIS*       CLOUDY    45  41  87 S12       30.07S
THREE RIVERS*  CLOUDY    45  40  83 S7        30.07S

$$
OHZ001>008-015>018-024>025-270200-
NORTHWEST OHIO

CITY           SKY/WX    TMP DP  RH WIND       PRES   REMARKS
WAUSEON*       FAIR      41  39  93 S8        30.12R
DEFIANCE       MOCLDY    42  38  85 S5        30.13R
FINDLAY        MOCLDY    41  35  79 S9        30.14R
TOLEDO EXPRESS CLOUDY    42  37  82 S6        30.12S
TOLEDO METCALF MOCLDY    40  36  86 S8        30.14S
LIMA           MOCLDY    44  35  70 S8        30.14R

$$
AND FOR LAKE MICHIGAN COASTAL AND OPEN LAKE BUOY OBSERVATIONS

STATION/POSITION TEMP    WIND        PRES    VSBY  WAVE
                 AIR SEA DIR/SP/G                  HT/PER
                 (F)     (DEG/KT/KT) (MB)    (MI)  (FT/S)
CALUMET HARBOR    49     180/  8/ 12 1015.6S
MICHIGAN CITY     48     170/ 10/ 14   N/A
SAINT JOSEPH      49     160/  3/  7 1017.9F

$$
&&


USA.gov is the U.S. government's official web portal to all federal, state and local government web resources and services.